DateTimeUTC,F1_A11,F1_S11,BsB_S11,BsG_S11,BsR_S11,BbsB_S11,BbsG_S11,BbsR_S11,BaB_A11,BaG_A11,BaR_A11,T_S11,U_S11,P_S11,T1_A11
2020-06-17T00:00:00Z,00000380,20000600,,,,,,,,,,25.0,03.2,0668.7,31.1
2020-06-17T00:01:00Z,00000380,20000600,,,,,,,,,,25.0,03.2,0668.7,31.1
2020-06-17T00:02:00Z,00000380,20000600,,,,,,,,,,25.0,03.2,0668.6,31.1
2020-06-17T00:03:00Z,00000380,60000600,,,,,,,,,,25.0,03.2,0668.6,31.1
2020-06-17T00:04:00Z,00000380,40000600,0001.66,0000.88,0000.17,0000.53,0000.38,-000.14,0000.16,0000.19,-000.00,24.8,03.2,0669.6,31.1
2020-06-17T00:05:00Z,00000380,00000600,0001.28,0000.67,-000.07,-000.40,0000.34,-000.20,0000.11,0000.01,0000.09,24.8,03.2,0669.7,31.1
2020-06-17T00:06:00Z,00000380,00000600,0000.61,0000.02,0000.37,-000.99,0000.30,-000.25,-000.20,-000.06,0000.05,24.8,03.2,0669.7,31.1
2020-06-17T00:07:00Z,00000380,00000600,0000.67,0000.69,0000.42,-000.21,0000.43,-000.13,0000.07,-000.01,-000.11,24.8,03.3,0669.7,31.1
2020-06-17T00:08:00Z,00000380,00000600,0001.55,0000.68,0000.16,0000.22,0000.33,-000.28,-000.10,0000.16,0000.18,24.8,03.3,0669.7,31.1
2020-06-17T00:09:00Z,00000380,00000600,-000.84,0000.62,0000.34,-000.03,-000.12,-000.11,0000.27,0000.05,-000.05,24.7,03.3,0669.7,31.1
2020-06-17T00:10:00Z,00000380,00000600,-000.56,0000.41,0000.55,-000.16,0000.29,-000.12,-000.12,-000.09,-000.08,24.8,03.2,0669.7,31.1
2020-06-17T00:11:00Z,00000380,00000600,-000.52,0000.87,-000.26,-001.00,-000.04,-000.29,-000.05,0000.11,0000.05,24.7,03.2,0669.8,31.1
2020-06-17T00:12:00Z,00000380,00000600,0000.73,0000.07,0000.17,-000.71,-000.10,0000.03,0000.17,-000.06,0000.09,24.7,03.3,0669.8,31.1
2020-06-17T00:13:00Z,00000380,00000600,0002.06,0000.60,0000.01,-000.26,-000.02,-000.13,-000.10,0000.01,0000.02,24.7,03.2,0669.7,31.1
2020-06-17T00:14:00Z,00000380,00000600,0000.95,0000.23,-000.13,0000.03,-000.14,-000.36,0000.08,-000.05,-000.02,24.7,03.3,0669.8,31.1
2020-06-17T00:15:00Z,00000380,00000600,-000.70,0000.34,0000.28,-000.77,-000.32,0000.16,0000.03,0000.22,0000.01,24.7,03.3,0669.8,31.1
2020-06-17T00:16:00Z,00000380,00000600,-001.49,-000.03,-000.72,0000.36,-000.18,-000.13,0000.02,-000.03,0000.06,24.7,03.3,0669.8,31.1
2020-06-17T00:17:00Z,00000380,00000600,-000.34,0000.36,-000.10,-000.45,-000.05,0000.05,0000.03,0000.02,0000.17,24.7,03.2,0669.8,31.1
2020-06-17T00:18:00Z,00000380,00000600,-000.01,0000.05,0000.08,0000.15,0000.11,0000.50,-000.01,0000.04,-000.11,24.7,03.2,0669.8,31.1
2020-06-17T00:19:00Z,00000380,00000600,0000.05,0000.48,0000.43,-000.77,0000.29,0000.05,0000.02,-000.21,0000.03,24.7,03.3,0669.8,31.1
2020-06-17T00:20:00Z,00000380,00000600,0000.19,0001.22,-000.73,-000.04,-000.01,-000.43,0000.07,0000.19,-000.01,24.7,03.3,0669.8,31.1
2020-06-17T00:21:00Z,00000380,00000600,0002.29,0000.18,0000.50,0000.33,0000.19,-000.26,-000.09,0000.09,0000.00,24.7,03.2,0669.8,31.1
2020-06-17T00:22:00Z,00000380,00000600,0000.72,-000.01,0000.41,-000.36,0000.41,0000.30,0000.07,0000.02,-000.02,24.7,03.3,0669.8,31.1
2020-06-17T00:23:00Z,00000380,00000600,0001.44,0000.66,0000.50,-000.40,0000.17,0000.20,0000.13,0000.05,0000.15,24.7,03.3,0669.8,31.1
2020-06-17T00:24:00Z,00000380,00000600,0000.53,-000.12,0000.06,-000.72,0000.32,0000.30,-000.00,-000.20,-000.19,24.7,03.3,0669.8,31.1
2020-06-17T00:25:00Z,00000380,00000600,0000.41,0000.13,-000.21,-000.43,0000.21,-000.19,-000.10,0000.04,0000.12,24.7,03.3,0669.8,31.1
2020-06-17T00:26:00Z,00000380,00000600,0001.37,0000.66,-000.38,-000.91,0000.58,0000.16,-000.08,-000.01,-000.09,24.7,03.3,0669.8,31.1
2020-06-17T00:27:00Z,00000380,00000600,0000.62,0000.71,-000.01,0000.21,0000.03,0000.10,0000.00,0000.01,0000.15,24.7,03.3,0669.8,31.1
2020-06-17T00:28:00Z,00000380,00000600,0001.09,0000.02,0000.58,-000.00,0000.56,-000.15,0000.19,0000.12,-000.05,24.7,03.3,0669.8,31.1
2020-06-17T00:29:00Z,00000380,00000600,0000.26,0000.14,0000.01,-000.52,0000.43,-000.35,-000.03,-000.04,0000.03,24.7,03.2,0669.8,31.1
2020-06-17T00:30:00Z,00000380,00000600,0001.41,0000.71,-000.07,0000.57,0000.21,0000.09,-000.10,0000.04,0000.04,24.7,03.3,0669.8,31.1
2020-06-17T00:31:00Z,00000380,00000600,0000.11,0000.76,0000.38,-000.06,0000.20,0000.16,0000.05,-000.01,-000.00,24.7,03.2,0669.8,31.1
2020-06-17T00:32:00Z,00000380,00000600,0000.24,0000.28,0000.00,-001.31,0000.25,-000.27,-000.03,0000.04,-000.08,24.7,03.3,0669.8,31.1
2020-06-17T00:33:00Z,00000380,00000600,0000.36,0000.73,-000.02,-000.84,0000.07,-000.11,0000.08,0000.07,0000.06,24.7,03.3,0669.8,31.1
2020-06-17T00:34:00Z,00000380,00000600,0000.94,0000.79,0000.14,-000.36,-000.16,-000.07,0000.07,-000.11,0000.03,24.6,03.2,0669.8,31.1
2020-06-17T00:35:00Z,00000380,00000600,0001.01,0000.54,0000.45,-000.39,-000.05,-000.24,0000.03,0000.16,-000.03,24.6,03.2,0669.8,31.1
2020-06-17T00:36:00Z,00000380,00000600,-000.14,0000.15,0000.18,-000.40,0000.08,0000.02,-000.12,0000.03,0000.12,24.6,03.3,0669.8,31.1
2020-06-17T00:37:00Z,00000380,00000600,0001.38,0000.91,-000.13,-000.44,-000.03,-000.34,0000.04,-000.07,0000.00,24.7,03.3,0669.8,31.1
2020-06-17T00:38:00Z,00000380,00000600,0001.59,0000.89,0000.21,0000.75,-000.18,0000.30,0000.14,0000.12,0000.13,24.7,03.3,0669.8,31.1
2020-06-17T00:39:00Z,00000380,00000600,0000.65,0000.98,-000.09,-000.44,-000.03,0000.01,-000.08,-000.02,-000.22,24.7,03.2,0669.8,31.1
2020-06-17T00:40:00Z,00000380,00000600,0001.71,0000.31,-000.06,-000.11,0000.21,0000.08,-000.01,0000.12,0000.31,24.6,03.3,0669.8,31.1
2020-06-17T00:41:00Z,00000380,00000600,0001.39,0000.10,-000.17,0000.33,0000.40,0000.09,-000.09,-000.13,-000.20,24.6,03.3,0669.8,31.1
2020-06-17T00:42:00Z,00000380,00000600,0001.24,0000.90,0000.18,-000.71,-000.27,-000.21,0000.24,0000.05,0000.04,24.6,03.2,0669.8,31.1
2020-06-17T00:43:00Z,00000380,00000600,0000.98,0000.01,0000.33,-000.98,-000.20,-000.26,-000.25,-000.16,-000.07,24.6,03.3,0669.8,31.1
2020-06-17T00:44:00Z,00000380,00000600,0000.38,0000.46,0000.46,-000.45,0000.15,0000.19,0000.17,-000.04,-000.05,24.6,03.3,0669.8,31.1
2020-06-17T00:45:00Z,00000380,00000600,0000.35,0000.74,-000.09,0000.12,-000.03,-000.25,0000.04,0000.13,0000.20,24.6,03.3,0669.8,31.1
2020-06-17T00:46:00Z,00000380,00000600,0000.88,0000.41,0000.79,-000.79,0000.02,-000.01,0000.04,-000.04,0000.02,24.6,03.3,0669.8,31.1
2020-06-17T00:47:00Z,00000380,00000600,0001.04,0000.14,0000.07,0000.21,-000.23,-000.17,-000.02,0000.09,-000.07,24.6,03.3,0669.8,31.1
2020-06-17T00:48:00Z,00000380,00000600,0001.44,0000.40,0000.39,0000.59,0000.36,-000.50,0000.04,-000.09,0000.03,24.6,03.3,0669.8,31.1
2020-06-17T00:49:00Z,00000380,00000600,-000.04,0000.34,0000.20,-000.24,0000.47,-000.07,0000.05,0000.02,0000.09,24.6,03.3,0669.8,31.1
2020-06-17T00:50:00Z,00000380,00000600,-000.00,0000.20,0000.14,-001.21,0000.32,0000.02,-000.30,-000.01,-000.04,24.6,03.2,0669.8,31.1
2020-06-17T00:51:00Z,00000380,00000600,0001.55,0000.15,0000.18,-000.25,-000.15,0000.04,0000.19,0000.20,0000.05,24.6,03.3,0669.8,31.1
2020-06-17T00:52:00Z,00000380,00000600,0000.77,0000.69,0000.11,-001.06,-000.01,0000.04,0000.04,-000.30,-000.10,24.6,03.2,0669.8,31.1
2020-06-17T00:53:00Z,00000380,00000600,0000.90,0000.20,0000.78,-001.06,0000.11,0000.34,-000.03,0000.25,0000.00,24.6,03.2,0669.8,31.1
2020-06-17T00:54:00Z,00000380,00000600,0000.31,0000.48,0000.08,-000.56,0000.07,-000.12,0000.08,0000.05,0000.09,24.6,03.3,0669.8,31.1
2020-06-17T00:55:00Z,00000380,00000600,0001.90,0000.31,0000.40,-000.14,0000.05,0000.13,-000.14,-000.08,-000.01,24.6,03.2,0669.8,31.1
2020-06-17T00:56:00Z,00000380,00000600,0000.24,0000.78,0000.16,-000.39,0000.50,0000.18,-000.04,0000.08,0000.03,24.5,03.3,0669.8,31.1
2020-06-17T00:57:00Z,00000380,40000600,,,,,,,,,,24.6,03.3,0669.8,31.1
2020-06-17T00:58:00Z,00000380,60000600,,,,,,,,,,24.7,03.2,0668.7,31.1
2020-06-17T00:59:00Z,00000380,20000600,,,,,,,,,,24.8,03.2,0668.7,31.1
2020-06-17T01:00:00Z,00000380,20000600,,,,,,,,,,24.8,03.1,0668.7,31.1
2020-06-17T01:01:00Z,00000380,20000600,,,,,,,,,,24.8,03.0,0668.8,31.1
2020-06-17T01:02:00Z,00000380,20000600,,,,,,,,,,24.8,03.0,0668.8,31.1
2020-06-17T01:03:00Z,00000380,60000600,,,,,,,,,,24.8,03.0,0668.7,31.1
2020-06-17T01:04:00Z,00000380,40000600,-000.33,-000.05,0000.16,0001.24,-000.51,-000.08,0000.28,0000.12,-000.11,24.6,03.2,0669.7,31.1
2020-06-17T01:05:00Z,00000380,00000600,0000.03,0001.11,0000.19,-000.19,0000.41,0000.06,-000.25,-000.02,0000.02,24.6,03.2,0669.8,31.1
2020-06-17T01:06:00Z,00000380,00000600,-000.67,0000.27,0000.74,0000.21,-000.04,0000.04,0000.22,0000.02,0000.06,24.6,03.2,0669.8,31.1
2020-06-17T01:07:00Z,00000380,00000600,0000.54,0000.74,0000.85,0000.61,-000.08,0000.50,0000.09,0000.09,0000.08,24.6,03.2,0669.8,31.1
2020-06-17T01:08:00Z,00000380,00000600,-000.27,0000.65,0000.22,0000.49,0000.27,0000.09,-000.10,0000.12,-000.04,24.6,03.2,0669.8,31.1
2020-06-17T01:09:00Z,00000380,00000600,0001.33,0001.23,0000.83,0000.52,0000.53,0000.58,0000.01,-000.17,0000.01,24.6,03.2,0669.8,31.1
2020-06-17T01:10:00Z,00000380,00000600,0000.42,0000.86,0000.62,0000.51,-000.17,0000.41,0000.23,0000.12,0000.02,24.6,03.2,0669.8,31.1
2020-06-17T01:11:00Z,00000380,00000600,0000.98,-000.14,0000.18,0000.54,0000.45,0000.39,-000.16,-000.03,0000.08,24.6,03.2,0669.8,31.1
2020-06-17T01:12:00Z,00000380,00000600,0001.87,0000.47,0000.62,-000.40,0000.14,0000.26,0000.11,0000.03,-000.03,24.6,03.2,0669.8,31.1
2020-06-17T01:13:00Z,00000380,00000600,0000.71,0000.56,0000.89,0000.04,-000.12,0000.25,-000.02,0000.01,0000.03,24.5,03.2,0669.9,31.1
2020-06-17T01:14:00Z,00000380,00000600,0000.04,0000.51,0000.24,0000.08,-000.18,0000.57,-000.11,-000.06,-000.08,24.5,03.2,0669.8,31.1
2020-06-17T01:15:00Z,00000380,00000600,0000.57,0000.99,0000.76,0000.82,0000.18,0001.08,-000.02,0000.18,-000.03,24.5,03.2,0669.9,31.1
2020-06-17T01:16:00Z,00000380,00000600,0000.49,0000.77,0000.28,0000.85,-000.27,0000.16,0000.10,-000.14,0000.08,24.5,03.2,0669.9,31.1
2020-06-17T01:17:00Z,00000380,00000600,0001.20,0000.57,0000.27,0000.17,-000.28,0000.47,-000.01,0000.15,-000.02,24.5,03.2,0669.9,31.1
2020-06-17T01:18:00Z,00000380,00000600,0000.71,0000.62,0000.56,0000.12,0000.06,0000.13,0000.02,-000.21,0000.07,24.5,03.2,0669.9,31.1
2020-06-17T01:19:00Z,00000380,00000600,0000.68,0000.77,0000.28,0000.69,0000.43,0000.38,-000.03,0000.05,-000.04,24.5,03.2,0669.9,31.1
2020-06-17T01:20:00Z,00000380,00000600,0000.16,0000.07,0000.58,-000.49,0000.00,0000.13,0000.16,0000.06,0000.24,24.5,03.2,0669.9,31.1
2020-06-17T01:21:00Z,00000380,00000600,0000.49,0001.05,-000.12,0001.21,0000.01,0000.27,0000.02,0000.02,-000.20,24.5,03.2,0669.9,31.1
2020-06-17T01:22:00Z,00000380,00000600,-001.07,0000.12,0000.23,-000.18,0000.23,0000.66,-000.01,0000.18,0000.07,24.5,03.2,0669.9,31.1
2020-06-17T01:23:00Z,00000380,00000600,-000.60,0001.05,0000.97,-000.16,-000.15,0000.88,-000.13,-000.28,-000.00,24.5,03.2,0669.9,31.1
2020-06-17T01:24:00Z,00000380,00000600,0000.97,-000.25,0000.01,0000.26,-000.34,0000.41,-000.11,-000.20,-000.04,24.5,03.2,0669.9,31.1
2020-06-17T01:25:00Z,00000380,00000600,0000.34,0000.49,0000.59,0000.48,0000.38,0000.28,0000.10,0000.34,-000.14,24.5,03.1,0669.9,31.1
2020-06-17T01:26:00Z,00000380,00000600,0000.35,0000.23,-000.10,0000.68,0000.11,0000.16,-000.05,-000.23,0000.05,24.5,03.2,0669.9,31.1
2020-06-17T01:27:00Z,00000380,00000600,-000.28,0000.50,0000.94,0000.16,-000.06,0000.52,-000.17,-000.10,-000.16,24.5,03.1,0669.9,31.1
2020-06-17T01:28:00Z,00000380,00000600,-000.48,0000.69,0000.31,0000.25,-000.07,0000.37,0000.00,0000.00,0000.04,24.5,03.1,0669.9,31.1
2020-06-17T01:29:00Z,00000380,00000600,0000.45,0000.50,0000.30,0000.67,-000.06,0000.30,-000.05,0000.15,-000.05,24.5,03.1,0669.9,31.1
2020-06-17T01:30:00Z,00000380,00000600,0001.39,0001.03,-000.02,-000.54,0000.27,0000.35,-000.05,-000.23,0000.07,24.5,03.0,0669.9,31.1
2020-06-17T01:31:00Z,00000380,00000600,0000.79,0000.53,-000.32,-000.43,0000.05,-000.16,-000.13,-000.10,-000.34,24.5,03.0,0669.9,31.1
2020-06-17T01:32:00Z,00000380,00000600,0001.11,0000.83,0000.07,0000.67,-000.27,0000.66,-000.04,-000.03,0000.19,24.5,02.9,0669.9,31.1
2020-06-17T01:33:00Z,00000380,00000600,0000.58,0000.01,0000.34,0000.13,-000.07,0000.46,0000.20,0000.10,0000.08,24.5,02.9,0669.9,31.1
2020-06-17T01:34:00Z,00000380,00000600,0001.02,0000.19,0000.19,0000.22,0000.10,-000.17,0000.02,0000.11,0000.01,24.5,03.0,0669.9,31.1
2020-06-17T01:35:00Z,00000380,00000600,0001.02,0000.50,0000.05,0000.39,0000.13,0000.15,-000.17,-000.04,-000.04,24.5,03.0,0669.9,31.1
2020-06-17T01:36:00Z,00000380,00000600,0000.97,-000.07,0000.54,-000.32,0000.06,-000.10,0000.11,-000.00,0000.25,24.5,03.0,0669.9,31.1
2020-06-17T01:37:00Z,00000380,00000600,0000.90,0000.43,0000.17,0000.18,0000.00,0000.35,0000.00,-000.02,-000.22,24.5,03.0,0669.9,31.1
2020-06-17T01:38:00Z,00000380,00000600,-000.31,-000.06,0000.26,0000.52,0000.31,0000.08,-000.33,-000.16,-000.21,24.4,03.0,0669.9,31.1
2020-06-17T01:39:00Z,00000380,00000600,0000.10,0000.02,0000.48,-000.11,0000.31,0000.29,-000.06,-000.25,0000.07,24.4,02.9,0669.9,31.1
2020-06-17T01:40:00Z,00000380,00000600,0001.28,0000.67,-000.04,0000.23,-000.04,0000.16,-000.15,-000.02,-000.10,24.5,02.8,0669.9,31.1
2020-06-17T01:41:00Z,00000380,00000600,0000.55,0000.14,-000.27,-000.16,0000.17,0000.28,0000.01,0000.17,0000.03,24.4,02.8,0669.9,31.1
2020-06-17T01:42:00Z,00000380,00000600,-001.51,0000.48,0000.09,-000.43,-000.01,0000.30,-000.26,-000.32,-000.16,24.4,02.7,0669.9,31.1
2020-06-17T01:43:00Z,00000380,00000600,-000.53,0000.06,-000.37,0000.23,0000.09,0000.65,0000.09,-000.11,-000.05,24.4,02.7,0669.8,31.1
2020-06-17T01:44:00Z,00000380,00000600,0000.68,0000.37,0000.14,0000.33,-000.11,0000.25,-000.32,-000.08,-000.12,24.4,02.6,0669.8,31.0
2020-06-17T01:45:00Z,00000380,00000600,0000.63,0000.23,0000.19,0000.30,-000.39,0000.76,0000.11,0000.02,-000.05,24.4,02.6,0669.8,31.1
2020-06-17T01:46:00Z,00000380,00000600,-000.86,-000.59,0000.20,0000.95,-000.26,0000.28,0000.15,0000.00,-000.03,24.4,02.6,0669.9,31.1
2020-06-17T01:47:00Z,00000380,00000600,0000.48,0000.43,0000.52,0000.09,0000.19,0000.36,-000.02,0000.12,0000.16,24.4,02.6,0669.8,31.1
2020-06-17T01:48:00Z,00000380,00000600,-000.52,-000.08,-000.19,-000.01,0000.03,0000.58,-000.16,-000.07,-000.07,24.4,02.6,0669.9,31.1
2020-06-17T01:49:00Z,00000380,00000600,0000.68,0000.55,0000.11,-000.23,0000.18,0000.24,0000.25,0000.10,0000.06,24.4,02.6,0669.9,31.1
2020-06-17T01:50:00Z,00000380,00000600,0000.47,-000.36,0000.04,0000.10,0000.06,-000.03,-000.18,-000.06,-000.01,24.4,02.6,0669.9,31.1
2020-06-17T01:51:00Z,00000380,00000600,0001.03,0000.15,0000.50,0000.88,0000.15,0000.00,0000.15,0000.07,-000.07,24.4,02.6,0669.9,31.1
2020-06-17T01:52:00Z,00000380,00000600,-000.41,0000.30,-000.22,-000.22,0000.30,-000.23,0000.05,-000.12,0000.15,24.4,02.7,0669.9,31.1
2020-06-17T01:53:00Z,00000380,00000600,-000.19,0000.75,0000.72,0000.12,0000.35,0000.52,0000.01,0000.03,-000.05,24.4,02.7,0669.9,31.1
2020-06-17T01:54:00Z,00000380,00000600,0000.67,0000.04,0000.75,0000.15,-000.12,0000.16,-000.03,0000.17,-000.03,24.4,02.7,0669.9,31.1
2020-06-17T01:55:00Z,00000380,00000600,0001.11,0000.19,-000.14,0000.24,0000.09,0000.30,0000.07,-000.05,0000.07,24.4,02.7,0669.9,31.1
2020-06-17T01:56:00Z,00000380,00000600,-000.03,0000.14,0000.37,0000.93,0000.08,0000.33,0000.07,0000.07,0000.06,24.4,02.7,0669.9,31.0
2020-06-17T01:57:00Z,00000380,40000600,,,,,,,,,,24.4,03.0,0669.9,31.1
2020-06-17T01:58:00Z,00000380,60000600,,,,,,,,,,24.5,02.8,0668.9,31.1
2020-06-17T01:59:00Z,00000380,20000600,,,,,,,,,,24.6,02.6,0668.8,31.1
2020-06-17T02:00:00Z,00000380,20000600,,,,,,,,,,24.6,02.6,0668.8,31.1
2020-06-17T02:01:00Z,00000380,20000600,,,,,,,,,,24.6,02.6,0668.8,31.1
2020-06-17T02:02:00Z,00000380,20000600,,,,,,,,,,24.7,02.6,0668.8,31.1
2020-06-17T02:03:00Z,00000380,60000600,,,,,,,,,,24.7,02.6,0668.8,31.1
2020-06-17T02:04:00Z,00000380,40000600,-000.07,0000.74,-000.17,-000.31,-000.36,0000.45,-000.03,0000.18,0000.01,24.5,02.7,0669.8,31.1
2020-06-17T02:05:00Z,00000380,00000600,-000.71,0000.04,-000.49,-000.18,-000.21,0000.22,0000.03,-000.16,0000.08,24.4,02.8,0669.9,31.1
2020-06-17T02:06:00Z,00000380,00000600,0001.32,0000.62,0000.25,0000.29,0000.04,0000.32,0000.00,-000.05,-000.08,24.4,02.8,0669.9,31.1
2020-06-17T02:07:00Z,00000380,00000600,-000.01,-000.41,-000.10,0000.33,0000.06,0000.10,0000.05,-000.11,0000.05,24.4,02.8,0669.9,31.1
2020-06-17T02:08:00Z,00000380,00000600,0000.77,0000.14,0000.14,0000.46,-000.20,0000.49,-000.11,0000.21,0000.03,24.4,02.8,0669.9,31.1
2020-06-17T02:09:00Z,00000380,00000600,0000.37,-000.11,-000.21,0000.53,0000.06,-000.12,0000.18,0000.06,-000.00,24.4,02.8,0669.9,31.1
2020-06-17T02:10:00Z,00000380,00000600,0000.29,0000.10,-000.15,0001.14,-000.10,0000.55,-000.17,-000.13,-000.07,24.4,02.7,0669.9,31.0
2020-06-17T02:11:00Z,00000380,00000600,0000.53,0000.00,-000.03,0000.47,0000.00,0000.36,0000.05,-000.01,0000.00,24.4,02.8,0669.9,31.0
2020-06-17T02:12:00Z,00000380,00000600,-001.14,-000.27,-000.36,-000.08,0000.01,-000.03,-000.02,0000.04,-000.02,24.4,02.7,0669.9,31.1
2020-06-17T02:13:00Z,00000380,00000600,-000.88,0000.31,-000.21,0000.06,-000.21,0000.20,0000.00,-000.03,-000.12,24.4,02.7,0669.9,31.1
2020-06-17T02:14:00Z,00000380,00000600,-000.97,0000.12,0000.12,0000.04,0000.15,0000.38,-000.06,-000.09,0000.15,24.4,02.8,0669.9,31.1
2020-06-17T02:15:00Z,00000380,00000600,-000.08,0000.03,-000.16,0000.09,0000.10,-000.12,0000.15,-000.04,-000.03,24.4,02.7,0669.9,31.1
2020-06-17T02:16:00Z,00000380,00000600,-000.09,0000.49,0000.06,0000.54,-000.28,0000.53,-000.18,0000.07,0000.01,24.4,02.7,0669.9,31.1
2020-06-17T02:17:00Z,00000380,00000600,-000.11,0000.14,-000.05,-000.28,0000.09,0000.87,0000.06,-000.12,-000.09,24.4,02.8,0669.9,31.1
2020-06-17T02:18:00Z,00000380,00000600,-000.11,0000.08,0000.12,-000.36,-000.19,0000.54,-000.03,0000.10,-000.02,24.4,02.7,0669.9,31.1
2020-06-17T02:19:00Z,00000380,00000600,-000.42,0000.67,-000.04,0000.14,-000.11,0000.18,0000.03,-000.04,0000.02,24.3,02.7,0669.9,31.1
2020-06-17T02:20:00Z,00000380,00000600,0000.01,-000.07,-000.31,-001.01,0000.22,0000.11,-000.20,0000.07,-000.16,24.4,02.7,0669.9,31.1
2020-06-17T02:21:00Z,00000380,00000600,-000.93,-000.29,-000.28,-000.89,0000.02,-000.16,0000.09,-000.07,0000.23,24.4,02.7,0669.9,31.0
2020-06-17T02:22:00Z,00000380,00000600,0000.38,0000.38,0000.23,0000.20,-000.07,0000.63,0000.08,-000.02,-000.10,24.4,02.6,0669.9,31.0
2020-06-17T02:23:00Z,00000380,00000600,0000.01,-000.00,0000.03,0000.72,0000.20,0000.13,-000.33,-000.06,0000.00,24.4,02.6,0669.9,31.0
2020-06-17T02:24:00Z,00000380,00000600,-000.24,-000.41,0000.09,0000.42,-000.12,0000.24,0000.19,0000.02,0000.03,24.4,02.6,0669.9,31.1
2020-06-17T02:25:00Z,00000380,00000600,-000.55,-000.26,-000.15,0000.36,-000.49,-000.26,0000.15,0000.16,0000.07,24.3,02.5,0669.9,31.0
2020-06-17T02:26:00Z,00000380,00000600,-001.32,-000.03,0000.51,-000.02,-000.06,0000.48,-000.09,-000.20,-000.23,24.3,02.6,0669.9,31.1
2020-06-17T02:27:00Z,00000380,00000600,-001.46,0000.19,-000.17,0000.30,-000.13,0000.29,0000.04,0000.03,0000.13,24.3,02.6,0669.9,31.0
2020-06-17T02:28:00Z,00000380,00000600,-002.03,0000.20,0000.35,0000.64,-000.25,0000.63,-000.01,-000.17,0000.04,24.3,02.6,0669.9,31.0
2020-06-17T02:29:00Z,00000380,00000600,-000.61,-000.56,0000.25,0000.70,0000.44,0000.15,0000.13,0000.25,-000.00,24.3,02.6,0669.9,31.0
2020-06-17T02:30:00Z,00000380,00000600,-000.61,-000.42,-000.33,0000.46,0000.02,0000.15,-000.19,-000.04,-000.07,24.3,02.6,0669.9,31.1
2020-06-17T02:31:00Z,00000380,00000600,-001.00,-000.17,0000.32,-000.06,-000.27,0000.34,-000.11,-000.01,0000.06,24.3,02.6,0669.9,31.1
2020-06-17T02:32:00Z,00000380,00000600,-000.32,0000.13,-000.27,0000.93,-000.25,0000.35,0000.04,-000.01,0000.09,24.3,02.6,0669.9,31.1
2020-06-17T02:33:00Z,00000380,00000600,0000.50,-000.33,0000.30,-000.02,-000.04,0000.22,0000.01,-000.09,-000.24,24.3,02.6,0669.9,31.0
2020-06-17T02:34:00Z,00000380,00000600,0000.73,-000.05,-000.16,-000.50,0000.19,0000.19,-000.08,0000.03,-000.04,24.3,02.6,0669.9,31.1
2020-06-17T02:35:00Z,00000380,00000600,0001.01,-000.38,0000.66,0000.53,-000.21,0000.61,0000.17,0000.01,-000.03,24.3,02.6,0669.9,31.1
2020-06-17T02:36:00Z,00000380,00000600,-000.95,0000.12,0000.22,0000.28,-000.05,-000.20,-000.05,-000.08,0000.11,24.3,02.5,0669.9,31.0
2020-06-17T02:37:00Z,00000380,00010600,-000.48,-000.10,0000.38,0000.00,-000.03,0000.23,-000.14,-000.17,-000.17,24.3,02.6,0669.9,31.1
2020-06-17T02:38:00Z,00000380,00000600,-000.63,-000.57,-000.38,-000.14,-000.58,0000.08,-000.00,0000.23,0000.10,24.3,02.6,0669.8,31.1
2020-06-17T02:39:00Z,00000380,00000600,-000.55,0000.48,-000.11,0000.85,-000.30,0000.22,-000.10,-000.24,0000.07,24.3,02.5,0669.8,31.1
2020-06-17T02:40:00Z,00000380,00000600,-001.38,0000.52,0000.04,0000.67,0000.19,-000.19,0000.07,0000.10,-000.18,24.3,02.4,0669.8,31.1
2020-06-17T02:41:00Z,00000380,00000600,-000.42,0000.13,0000.41,-000.60,0000.05,0000.33,0000.15,0000.14,0000.19,24.3,02.6,0669.8,31.1
2020-06-17T02:42:00Z,00000380,00000600,0000.68,-000.36,-000.37,0000.31,0000.17,0000.17,-000.10,-000.09,-000.09,24.3,02.5,0669.8,31.1
2020-06-17T02:43:00Z,00000380,00000600,-000.26,-000.09,0000.31,-000.13,-000.22,0000.08,-000.03,-000.11,0000.00,24.3,02.5,0669.8,31.1
2020-06-17T02:44:00Z,00000380,00000600,-001.20,-000.21,0000.16,-000.38,0000.10,0000.15,0000.12,0000.09,-000.04,24.3,02.5,0669.8,31.1
2020-06-17T02:45:00Z,00000380,00000600,0000.20,-000.28,0000.60,0000.14,-000.08,0000.50,-000.18,-000.06,0000.03,24.3,02.5,0669.8,31.0
2020-06-17T02:46:00Z,00000380,00000600,-000.31,0000.68,0000.02,0000.22,-000.37,0000.01,0000.06,0000.04,0000.02,24.3,02.5,0669.8,31.0
2020-06-17T02:47:00Z,00000380,00000600,-000.07,-000.06,-000.22,-000.50,-000.44,-000.09,0000.11,-000.00,-000.10,24.3,02.5,0669.8,31.1
2020-06-17T02:48:00Z,00000380,00000600,-000.72,-000.05,-000.03,0000.14,-000.23,-000.12,0000.02,0000.07,0000.14,24.3,02.4,0669.8,31.1
2020-06-17T02:49:00Z,00000380,00000600,-001.04,-000.04,0000.17,0000.48,-000.13,0000.19,-000.11,-000.13,-000.02,24.3,02.5,0669.8,31.0
2020-06-17T02:50:00Z,00000380,00000600,0000.24,0000.68,-000.37,0000.35,-000.24,0000.17,0000.09,-000.03,-000.12,24.3,02.5,0669.8,31.0
2020-06-17T02:51:00Z,00000380,00000600,-000.24,-000.05,-000.50,0000.02,0000.06,0000.28,0000.02,0000.17,0000.13,24.3,02.5,0669.8,31.0
2020-06-17T02:52:00Z,00000380,00000600,0000.06,-000.09,-000.07,0000.41,-000.04,-000.16,-000.02,-000.21,-000.18,24.3,02.5,0669.8,31.0
2020-06-17T02:53:00Z,00000380,00000600,-000.29,0000.76,-000.12,0000.16,0000.14,0000.35,0000.00,0000.17,0000.09,24.3,02.4,0669.8,31.0
2020-06-17T02:54:00Z,00000380,00000600,-000.60,-000.34,-000.39,0000.99,0000.24,0000.38,0000.03,0000.12,0000.15,24.3,02.5,0669.8,31.0
2020-06-17T02:55:00Z,00000380,00000600,-000.98,-000.16,0000.25,-000.11,-000.34,-000.18,-000.10,-000.20,-000.07,24.3,02.5,0669.8,31.0
2020-06-17T02:56:00Z,00000380,00000600,-000.89,0000.08,-000.33,0000.26,0000.01,-000.23,0000.18,-000.02,0000.02,24.2,02.5,0669.8,31.0
2020-06-17T02:57:00Z,00000380,40000600,,,,,,,,,,24.3,02.8,0669.7,31.1
2020-06-17T02:58:00Z,00000380,60000600,,,,,,,,,,24.4,02.5,0668.8,31.1
2020-06-17T02:59:00Z,00000380,20000600,,,,,,,,,,24.5,02.4,0668.7,31.1
2020-06-17T03:00:00Z,00000380,20000600,,,,,,,,,,24.5,02.4,0668.7,31.0
2020-06-17T03:01:00Z,00000380,20000600,,,,,,,,,,24.5,02.3,0668.7,31.1
2020-06-17T03:02:00Z,00000380,20000600,,,,,,,,,,24.5,02.2,0668.7,31.1
2020-06-17T03:03:00Z,00000380,60000600,,,,,,,,,,24.5,02.2,0668.7,31.1
2020-06-17T03:04:00Z,00000380,40000600,0000.87,0000.66,0000.91,-000.40,0000.32,-000.19,0000.16,-000.05,-000.16,24.3,02.4,0669.6,31.0
2020-06-17T03:05:00Z,00000380,00000600,0000.22,0000.12,0000.32,0000.16,0000.50,-000.15,-000.14,-000.10,0000.13,24.3,02.4,0669.7,31.1
2020-06-17T03:06:00Z,00000380,00000600,-000.03,-000.19,0000.12,-000.21,-000.00,-000.09,-000.02,0000.03,-000.11,24.3,02.5,0669.7,31.1
2020-06-17T03:07:00Z,00000380,00000600,0000.88,0000.14,0000.71,0000.59,-000.16,0000.13,0000.11,-000.06,0000.12,24.3,02.5,0669.7,31.1
2020-06-17T03:08:00Z,00000380,00000600,0000.96,0000.52,0000.32,0000.81,-000.14,-000.25,-000.14,0000.11,0000.02,24.3,02.4,0669.7,31.1
2020-06-17T03:09:00Z,00000380,00000600,0000.73,0000.24,0000.33,-000.52,-000.05,-000.07,0000.00,-000.15,-000.17,24.2,02.4,0669.7,31.0
2020-06-17T03:10:00Z,00000380,00000600,0000.19,-000.04,0001.02,-000.12,0000.20,0000.35,-000.16,-000.05,0000.11,24.2,02.4,0669.7,31.1